EW4931 Weather Reports


time (UTC)temp
C
wind
direction
speed
KPH
gust
KPH
rain 1hr
cm
rain 24hr
cm
rain mn
cm
humidity
%
barometer
mb
20260508133127 12 162 8.0 19.3 0.00 0.00 0.00 29 1026.9
20260508132625 12 162 8.0 19.3 0.00 0.00 0.00 28 1026.9
20260508132344 12 151 9.7 14.5 0.00 0.00 0.00 29 1026.8
20260508131623 12 199 6.4 19.3 0.00 0.00 0.00 30 1026.9
20260508131136 12 158 9.7 19.3 0.00 0.00 0.00 28 1027.0
20260508130625 12 186 4.8 17.7 0.00 0.00 0.00 30 1026.9
20260508130124 12 196 11.3 17.7 0.00 0.00 0.00 27 1027.0
20260508125625 12 165 8.0 17.7 0.00 0.00 0.00 27 1027.0
20260508125125 12 185 11.3 17.7 0.00 0.00 0.00 28 1027.0
20260508124624 13 206 9.7 20.9 0.00 0.00 0.00 30 1027.0
20260508124350 12 120 16.1 20.9 0.00 0.00 0.00 31 1026.9
20260508123624 12 145 8.0 19.3 0.00 0.00 0.00 32 1026.9
20260508123125 12 168 11.3 19.3 0.00 0.00 0.00 31 1027.0
20260508122624 13 104 9.7 19.3 0.00 0.00 0.00 31 1026.9
20260508122124 12 141 11.3 19.3 0.00 0.00 0.00 29 1026.9
20260508121624 12 151 9.7 24.1 0.00 0.00 0.00 30 1026.9
20260508121125 12 138 12.9 24.1 0.00 0.00 0.00 31 1027.1
20260508120624 12 123 11.3 22.5 0.00 0.00 0.00 30 1026.9
20260508120124 12 92 14.5 20.9 0.00 0.00 0.00 32 1026.9
20260508115624 12 157 9.7 19.3 0.00 0.00 0.00 31 1027.0
20260508115125 12 157 9.7 19.3 0.00 0.00 0.00 32 1027.0
20260508114624 12 135 11.3 19.3 0.00 0.00 0.00 32 1027.0
20260508114124 12 195 11.3 19.3 0.00 0.00 0.00 32 1026.9
20260508113623 12 113 9.7 16.1 0.00 0.00 0.00 32 1026.9
20260508113123 12 164 9.7 20.9 0.00 0.00 0.00 32 1027.0
20260508112623 12 71 14.5 20.9 0.00 0.00 0.00 33 1026.9
20260508112124 12 133 14.5 20.9 0.00 0.00 0.00 33 1026.9
20260508111622 12 111 9.7 20.9 0.00 0.00 0.00 32 1026.9
20260508111123 12 157 9.7 22.5 0.00 0.00 0.00 34 1026.9
20260508110623 12 135 17.7 24.1 0.00 0.00 0.00 33 1026.9
20260508110122 12 113 17.7 24.1 0.00 0.00 0.00 34 1027.0
20260508105623 12 204 12.9 24.1 0.00 0.00 0.00 34 1026.9
20260508105343 12 141 16.1 20.9 0.00 0.00 0.00 34 1026.9
20260508104623 12 144 14.5 22.5 0.00 0.00 0.00 33 1026.9
20260508104122 12 114 14.5 22.5 0.00 0.00 0.00 33 1026.9
20260508103622 12 158 12.9 22.5 0.00 0.00 0.00 34 1026.8
20260508103122 12 97 9.7 16.1 0.00 0.00 0.00 35 1026.9
20260508102622 12 138 9.7 19.3 0.00 0.00 0.00 34 1026.8
20260508102343 12 145 8.0 22.5 0.00 0.00 0.00 35 1026.8
20260508101840 12 137 9.7 22.5 0.00 0.00 0.00 35 1026.8
20260508101121 12 142 11.3 24.1 0.00 0.00 0.00 34 1026.8
20260508100622 12 118 12.9 24.1 0.00 0.00 0.00 33 1026.9
20260508100341 12 86 9.7 16.1 0.00 0.00 0.00 34 1026.8
20260508095620 12 72 6.4 17.7 0.00 0.00 0.00 35 1026.7
20260508095120 12 158 11.3 22.5 0.00 0.00 0.00 35 1026.8
20260508094619 12 75 14.5 22.5 0.00 0.00 0.00 35 1026.8
20260508094120 12 104 8.0 17.7 0.00 0.00 0.00 35 1026.8
20260508093619 12 161 8.0 19.3 0.00 0.00 0.00 37 1026.8
20260508093120 12 131 12.9 19.3 0.00 0.00 0.00 37 1026.8
20260508092619 11 102 9.7 19.3 0.00 0.00 0.00 37 1026.8
20260508092119 12 86 12.9 19.3 0.00 0.00 0.00 36 1026.7
20260508091619 12 118 9.7 19.3 0.00 0.00 0.00 38 1026.8
20260508091119 12 130 9.7 19.3 0.00 0.00 0.00 38 1026.8
20260508090619 12 135 6.4 19.3 0.00 0.00 0.00 39 1026.8
20260508090119 12 99 12.9 17.7 0.00 0.00 0.00 39 1026.7
20260508085620 12 97 12.9 16.1 0.00 0.00 0.00 40 1026.8
20260508085119 12 102 11.3 16.1 0.00 0.00 0.00 39 1026.7
20260508084620 12 196 11.3 16.1 0.00 0.00 0.00 39 1026.8
20260508084343 12 94 8.0 14.5 0.00 0.00 0.00 40 1026.7
20260508083620 12 128 9.7 14.5 0.00 0.00 0.00 39 1026.8
20260508083119 12 142 8.0 16.1 0.00 0.00 0.00 40 1026.7
20260508082619 12 148 9.7 16.1 0.00 0.00 0.00 37 1026.7
20260508082119 12 193 6.4 17.7 0.00 0.00 0.00 38 1026.8
20260508081620 12 197 3.2 17.7 0.00 0.00 0.00 40 1026.6
20260508081119 11 243 6.4 16.1 0.00 0.00 0.00 39 1026.6
20260508080619 11 138 8.0 16.1 0.00 0.00 0.00 41 1026.6
20260508080337 11 135 9.7 16.1 0.00 0.00 0.00 38 1026.6
20260508075617 11 104 9.7 16.1 0.00 0.00 0.00 40 1026.6
20260508075117 11 162 9.7 17.7 0.00 0.00 0.00 39 1026.6
20260508075109 11 155 9.7 17.7 0.00 0.00 0.00 40 1026.6
20260508074117 11 117 8.0 19.3 0.00 0.00 0.00 40 1026.6
20260508073617 11 133 12.9 19.3 0.00 0.00 0.00 39 1026.5
20260508073120 11 73 8.0 17.7 0.00 0.00 0.00 38 1026.5
20260508072618 11 188 11.3 17.7 0.00 0.00 0.00 38 1026.3
20260508072118 11 83 8.0 17.7 0.00 0.00 0.00 39 1026.3
20260508071618 11 109 11.3 16.1 0.00 0.00 0.00 37 1026.2
20260508071118 11 120 8.0 16.1 0.00 0.00 0.00 38 1026.2
20260508070617 11 113 12.9 16.1 0.00 0.00 0.00 39 1026.2
20260508070117 11 117 9.7 17.7 0.00 0.00 0.00 40 1026.1
20260508065616 11 113 9.7 17.7 0.00 0.00 0.00 41 1026.1
20260508065116 11 100 11.3 16.1 0.00 0.00 0.00 41 1026.1
20260508064843 10 137 8.0 19.3 0.00 0.00 0.00 42 1026.1
20260508064118 10 142 12.9 19.3 0.00 0.00 0.00 43 1026.1
20260508063617 11 134 11.3 17.7 0.00 0.00 0.00 42 1026.0
20260508063341 10 82 9.7 14.5 0.00 0.00 0.00 44 1025.9
20260508062617 10 169 3.2 17.7 0.00 0.00 0.00 45 1025.8
20260508062116 10 121 12.9 19.3 0.00 0.00 0.00 47 1025.8
20260508061616 10 145 9.7 19.3 0.00 0.00 0.00 47 1025.8
20260508061116 10 125 8.0 17.7 0.00 0.00 0.00 48 1025.7
20260508060616 9 154 8.0 17.7 0.00 0.00 0.00 50 1025.6
20260508060116 9 80 9.7 16.1 0.00 0.00 0.00 51 1025.6
20260508055616 9 121 9.7 16.1 0.00 0.00 0.00 53 1025.6
20260508055117 9 93 9.7 14.5 0.00 0.00 0.00 55 1025.6
20260508054616 9 128 6.4 16.1 0.00 0.00 0.00 56 1025.4
20260508054116 8 138 11.3 16.1 0.00 0.00 0.00 56 1025.5
20260508053615 8 140 9.7 16.1 0.00 0.00 0.00 59 1025.4
20260508053116 8 134 9.7 16.1 0.00 0.00 0.00 61 1025.4
20260508052615 8 158 3.2 14.5 0.00 0.00 0.00 62 1025.3
20260508052114 8 141 11.3 14.5 0.00 0.00 0.00 62 1025.4
20260508051614 7 154 4.8 11.3 0.00 0.00 0.00 65 1025.3
20260508051114 7 145 9.7 11.3 0.00 0.00 0.00 66 1025.3
20260508050614 7 140 8.0 11.3 0.00 0.00 0.00 68 1025.2
20260508050114 7 144 4.8 11.3 0.00 0.00 0.00 67 1025.2
20260508045615 7 202 6.4 9.7 0.00 0.00 0.00 67 1025.0
20260508045115 7 144 4.8 9.7 0.00 0.00 0.00 67 1025.1
20260508044614 7 158 6.4 9.7 0.00 0.00 0.00 67 1024.9
20260508044115 6 82 4.8 6.4 0.00 0.00 0.00 66 1024.9
20260508043615 6 152 0.0 4.8 0.00 0.00 0.00 67 1024.9
20260508043112 6 97 0.0 3.2 0.00 0.00 0.00 67 1024.8
20260508042613 6 97 0.0 1.6 0.00 0.00 0.00 70 1024.8
20260508042113 6 97 0.0 0.0 0.00 0.00 0.00 71 1024.7
20260508041837 5 97 0.0 1.6 0.00 0.00 0.00 73 1024.6
20260508041113 5 97 0.0 1.6 0.00 0.00 0.00 75 1024.5
20260508040613 4 97 1.6 6.4 0.00 0.00 0.00 76 1024.6
20260508040113 3 96 1.6 6.4 0.00 0.00 0.00 78 1024.5
20260508035613 3 94 3.2 6.4 0.00 0.00 0.00 80 1024.4
20260508035114 2 94 3.2 6.4 0.00 0.00 0.00 81 1024.3
20260508034613 2 106 1.6 3.2 0.00 0.00 0.00 81 1024.3
20260508034113 2 106 0.0 0.0 0.00 0.00 0.00 82 1024.3
20260508033613 2 106 0.0 0.0 0.00 0.00 0.00 84 1024.3
20260508033113 1 106 0.0 0.0 0.00 0.00 0.00 84 1024.2
20260508032836 1 106 0.0 0.0 0.00 0.00 0.00 85 1024.1
20260508032113 1 106 0.0 0.0 0.00 0.00 0.00 85 1024.0
20260508031613 1 106 0.0 0.0 0.00 0.00 0.00 86 1024.0
20260508031113 1 106 0.0 0.0 0.00 0.00 0.00 86 1023.9
20260508030838 1 106 0.0 1.6 0.00 0.00 0.00 86 1023.8
20260508030113 1 106 1.6 3.2 0.00 0.00 0.00 86 1023.8
20260508025613 1 106 1.6 3.2 0.00 0.00 0.00 86 1023.7
20260508025112 0 106 1.6 3.2 0.00 0.00 0.00 87 1023.6
20260508024612 0 106 0.0 3.2 0.00 0.00 0.00 87 1023.6
20260508024337 0 106 1.6 1.6 0.00 0.00 0.00 87 1023.6
20260508023612 1 106 1.6 1.6 0.00 0.00 0.00 87 1023.5
20260508023112 0 106 0.0 3.2 0.00 0.00 0.00 88 1023.5
20260508022612 0 106 1.6 3.2 0.00 0.00 0.00 88 1023.5
20260508022112 0 106 1.6 3.2 0.00 0.00 0.00 87 1023.4
20260508021611 0 106 3.2 3.2 0.00 0.00 0.00 87 1023.4
20260508021111 0 106 3.2 3.2 0.00 0.00 0.00 87 1023.3
20260508021057 0 106 0.0 0.0 0.00 0.00 0.00 86 1023.4
20260508020112 0 106 0.0 0.0 0.00 0.00 0.00 87 1023.3
20260508015610 0 106 0.0 0.0 0.00 0.00 0.00 87 1023.3
20260508015111 0 106 0.0 0.0 0.00 0.00 0.00 86 1023.4
20260508014841 0 106 0.0 0.0 0.00 0.00 0.00 87 1023.3
20260508014111 0 106 0.0 0.0 0.00 0.00 0.00 87 1023.3
20260508013830 0 106 0.0 0.0 0.00 0.00 0.00 86 1023.2
20260508013111 0 106 0.0 1.6 0.00 0.00 0.00 87 1023.3
20260508012610 0 106 1.6 3.2 0.00 0.00 0.00 87 1023.2
20260508012110 0 106 1.6 3.2 0.00 0.00 0.00 87 1023.2
20260508011609 0 106 1.6 3.2 0.00 0.00 0.00 87 1023.1
20260508011329 0 106 1.6 3.2 0.00 0.00 0.00 86 1023.1
20260508010609 0 106 1.6 3.2 0.00 0.00 0.00 86 1023.0
20260508010109 0 106 1.6 3.2 0.00 0.00 0.00 86 1022.9
20260508005610 0 106 1.6 3.2 0.00 0.00 0.00 87 1022.9
20260508005110 0 106 3.2 4.8 0.00 0.00 0.00 88 1022.8
20260508004610 0 106 3.2 4.8 0.00 0.00 0.00 87 1022.9
20260508004110 0 106 3.2 3.2 0.00 0.00 0.00 86 1022.7
20260508003610 0 106 0.0 0.0 0.00 0.00 0.00 86 1022.6
20260508003110 0 106 0.0 0.0 0.00 0.00 0.00 86 1022.5
20260508002609 1 106 0.0 0.0 0.00 0.00 0.00 86 1022.4
20260508002330 1 106 0.0 0.0 0.00 0.00 0.00 85 1022.3
20260508001609 1 106 0.0 0.0 0.00 0.00 0.00 85 1022.3
20260508001110 1 106 0.0 0.0 0.00 0.00 0.00 85 1022.2
20260508000609 1 106 0.0 0.0 0.00 0.00 0.00 84 1022.2
20260508000109 1 106 0.0 0.0 0.00 0.00 0.00 84 1022.2
20260507235609 1 106 0.0 0.0 0.00 0.00 0.00 84 1022.2
20260507235108 1 106 0.0 0.0 0.00 0.00 0.00 84 1022.1
20260507234608 1 106 0.0 0.0 0.00 0.00 0.00 83 1022.1
20260507234109 1 106 0.0 0.0 0.00 0.00 0.00 82 1022.2
20260507233608 1 106 0.0 0.0 0.00 0.00 0.00 82 1022.1
20260507233108 1 106 0.0 0.0 0.00 0.00 0.00 81 1022.1
20260507232612 1 106 0.0 0.0 0.00 0.00 0.00 81 1022.0
20260507232108 1 106 0.0 0.0 0.00 0.00 0.00 81 1021.9
20260507231608 1 106 0.0 0.0 0.00 0.00 0.00 81 1021.9
20260507231107 1 106 0.0 0.0 0.00 0.00 0.00 80 1021.8
20260507230608 1 106 0.0 0.0 0.00 0.00 0.00 80 1021.8
20260507230108 1 106 0.0 0.0 0.00 0.00 0.00 80 1021.7
20260507225608 1 106 0.0 0.0 0.00 0.00 0.00 80 1021.7
20260507225107 1 106 0.0 0.0 0.00 0.00 0.00 79 1021.6
20260507224611 1 106 0.0 0.0 0.00 0.00 0.00 79 1021.6
20260507224107 1 106 0.0 0.0 0.00 0.00 0.00 79 1021.6
20260507223607 1 106 0.0 0.0 0.00 0.00 0.00 79 1021.5
20260507223108 2 106 0.0 0.0 0.00 0.00 0.00 78 1021.5
20260507222607 2 106 0.0 0.0 0.00 0.00 0.00 79 1021.5
20260507222107 2 106 0.0 0.0 0.00 0.00 0.00 78 1021.5
20260507221606 2 106 0.0 0.0 0.00 0.00 0.00 78 1021.4
20260507221107 2 106 0.0 0.0 0.00 0.00 0.00 78 1021.4
20260507220607 2 106 0.0 0.0 0.00 0.00 0.00 78 1021.3
20260507220552 2 106 0.0 0.0 0.00 0.00 0.00 78 1021.4
20260507215607 2 106 0.0 0.0 0.00 0.00 0.00 77 1021.3
20260507215326 2 106 0.0 0.0 0.00 0.00 0.00 77 1021.3
20260507214606 2 106 0.0 0.0 0.00 0.00 0.00 77 1021.3
20260507214106 2 106 0.0 0.0 0.00 0.00 0.00 76 1021.2
20260507213605 2 106 0.0 0.0 0.00 0.00 0.00 76 1021.2
20260507213106 2 106 0.0 3.2 0.00 0.00 0.00 76 1021.0
20260507212826 2 106 0.0 3.2 0.00 0.00 0.00 76 1021.0
20260507212106 3 106 3.2 3.2 0.00 0.00 0.00 75 1021.0
20260507211605 3 106 0.0 3.2 0.00 0.00 0.00 74 1021.1
20260507211105 3 106 1.6 3.2 0.00 0.00 0.00 74 1021.0
20260507210606 3 106 1.6 3.2 0.00 0.00 0.00 73 1021.0
20260507210105 3 106 0.0 0.0 0.00 0.00 0.00 73 1020.9
20260507205824 3 106 0.0 0.0 0.00 0.00 0.00 72 1020.9
20260507205102 3 106 0.0 1.6 0.00 0.00 0.00 72 1020.8
20260507204824 3 106 0.0 3.2 0.00 0.00 0.00 72 1020.7
20260507204104 3 106 3.2 3.2 0.00 0.00 0.00 70 1020.7
20260507203826 4 106 0.0 0.0 0.00 0.00 0.00 69 1020.7
20260507203104 4 106 0.0 0.0 0.00 0.00 0.00 69 1020.6
20260507202827 4 106 0.0 0.0 0.00 0.00 0.00 70 1020.5
20260507202331 4 106 0.0 0.0 0.00 0.00 0.00 68 1020.5
20260507201603 4 106 0.0 1.6 0.00 0.00 0.00 68 1020.4
20260507201102 4 106 0.0 1.6 0.00 0.00 0.00 68 1020.4
20260507200603 4 106 1.6 3.2 0.00 0.00 0.00 67 1020.4
20260507200105 4 106 1.6 3.2 0.00 0.00 0.00 66 1020.2
20260507195605 4 106 1.6 3.2 0.00 0.00 0.00 65 1020.1
20260507195106 5 106 1.6 3.2 0.00 0.00 0.00 64 1020.1
20260507194605 5 106 1.6 3.2 0.00 0.00 0.00 63 1020.0
20260507194105 5 106 1.6 3.2 0.00 0.00 0.00 61 1020.0
20260507194050 5 106 0.0 1.6 0.00 0.00 0.00 59 1019.9
20260507193104 6 106 0.0 1.6 0.00 0.00 0.00 58 1019.8
20260507192824 6 106 0.0 1.6 0.00 0.00 0.00 57 1019.7
20260507192546 6 106 0.0 3.2 0.00 0.00 0.00 57 1019.6
20260507191605 6 106 1.6 6.4 0.00 0.00 0.00 57 1019.5
20260507191106 6 106 1.6 6.4 0.00 0.00 0.00 57 1019.5
20260507190605 6 104 3.2 6.4 0.00 0.00 0.00 54 1019.5
20260507190329 7 141 3.2 3.2 0.00 0.00 0.00 52 1019.4
20260507185605 7 141 1.6 3.2 0.00 0.00 0.00 50 1019.4
20260507185328 7 141 1.6 4.8 0.00 0.00 0.00 49 1019.3
20260507184605 7 141 1.6 4.8 0.00 0.00 0.00 47 1019.1
20260507184105 8 141 3.2 4.8 0.00 0.00 0.00 44 1019.1
20260507183605 8 141 3.2 4.8 0.00 0.00 0.00 42 1019.1
20260507183105 8 141 3.2 4.8 0.00 0.00 0.00 42 1019.1
20260507182605 8 141 1.6 8.0 0.00 0.00 0.00 41 1019.0
20260507182105 8 154 4.8 8.0 0.00 0.00 0.00 39 1018.9
20260507181605 8 166 1.6 9.7 0.00 0.00 0.00 39 1018.8
20260507181105 8 182 4.8 9.7 0.00 0.00 0.00 39 1018.7
20260507180829 9 199 3.2 9.7 0.00 0.00 0.00 38 1018.6
20260507180106 9 162 6.4 11.3 0.00 0.00 0.00 38 1018.7
20260507175605 9 186 6.4 11.3 0.00 0.00 0.00 38 1018.5
20260507175331 9 138 1.6 9.7 0.00 0.00 0.00 37 1018.5
20260507174826 10 173 3.2 9.7 0.00 0.00 0.00 36 1018.4
20260507174105 10 159 3.2 8.0 0.00 0.00 0.00 33 1018.3
20260507173832 10 183 4.8 11.3 0.00 0.00 0.00 35 1018.3
20260507173105 10 209 3.2 11.3 0.00 0.00 0.00 35 1018.2
20260507172824 10 159 6.4 9.7 0.00 0.00 0.00 35 1018.2
20260507172105 10 165 4.8 9.7 0.00 0.00 0.00 34 1018.2
20260507171603 10 168 4.8 14.5 0.00 0.00 0.00 34 1018.1
20260507171103 10 216 6.4 14.5 0.00 0.00 0.00 34 1018.0
20260507170604 10 192 3.2 9.7 0.00 0.00 0.00 33 1018.0
20260507170104 10 176 3.2 14.5 0.00 0.00 0.00 35 1017.9
20260507165605 10 193 6.4 14.5 0.00 0.00 0.00 35 1017.9
20260507165105 10 171 8.0 11.3 0.00 0.00 0.00 33 1017.8
20260507164829 10 173 3.2 14.5 0.00 0.00 0.00 33 1017.7
20260507164106 11 248 4.8 14.5 0.00 0.00 0.00 33 1017.6
20260507163605 11 175 3.2 14.5 0.00 0.00 0.00 34 1017.6
20260507163548 11 202 6.4 14.5 0.00 0.00 0.00 33 1017.5
20260507162605 11 173 4.8 11.3 0.00 0.00 0.00 34 1017.5
20260507162105 11 209 4.8 11.3 0.00 0.00 0.00 34 1017.6
20260507161605 11 278 6.4 11.3 0.00 0.00 0.00 34 1017.5
20260507161322 11 188 8.0 16.1 0.00 0.00 0.00 32 1017.6
20260507160603 11 161 6.4 16.1 0.00 0.00 0.00 26 1017.6
20260507160306 11 138 6.4 9.7 0.00 0.00 0.00 25 1017.5
20260507155105 11 110 12.9 19.3 0.00 0.00 0.00 26 1017.4
20260507154605 11 157 8.0 14.5 0.00 0.00 0.00 26 1017.4
20260507154104 11 197 8.0 17.7 0.00 0.00 0.00 25 1017.2
20260507153605 11 171 11.3 17.7 0.00 0.00 0.00 26 1017.2
20260507153329 11 151 9.7 16.1 0.00 0.00 0.00 27 1017.2
20260507152605 11 149 9.7 16.1 0.00 0.00 0.00 28 1017.1
20260507152105 11 151 11.3 16.1 0.00 0.00 0.00 28 1017.1
20260507151605 12 147 9.7 16.1 0.00 0.00 0.00 28 1017.1
20260507151106 12 154 4.8 16.1 0.00 0.00 0.00 29 1017.0
20260507150605 12 264 9.7 17.7 0.00 0.00 0.00 29 1017.1
20260507150321 12 186 11.3 17.7 0.00 0.00 0.00 30 1017.0
20260507145605 12 164 8.0 14.5 0.00 0.00 0.00 31 1017.0
20260507145105 12 219 4.8 19.3 0.00 0.00 0.00 32 1017.0
20260507144832 12 127 9.7 19.3 0.00 0.00 0.00 31 1016.9
20260507144104 12 137 14.5 20.9 0.00 0.00 0.00 31 1016.9
20260507143605 12 107 14.5 20.9 0.00 0.00 0.00 32 1016.9
20260507143105 12 137 8.0 17.7 0.00 0.00 0.00 33 1016.8
20260507142605 12 162 9.7 16.1 0.00 0.00 0.00 32 1016.8
20260507142104 12 137 9.7 16.1 0.00 0.00 0.00 31 1016.8
20260507141605 12 159 9.7 17.7 0.00 0.00 0.00 32 1016.7
20260507141105 12 97 11.3 20.9 0.00 0.00 0.00 32 1016.7
20260507140604 12 175 9.7 20.9 0.00 0.00 0.00 32 1016.6
20260507140104 12 148 9.7 14.5 0.00 0.00 0.00 31 1016.5
20260507135605 12 175 6.4 14.5 0.00 0.00 0.00 33 1016.6
20260507135105 12 133 8.0 19.3 0.00 0.00 0.00 33 1016.6
20260507134603 12 133 11.3 20.9 0.00 0.00 0.00 33 1016.5
20260507134103 12 142 14.5 20.9 0.00 0.00 0.00 33 1016.4
20260507133604 12 192 4.8 19.3 0.00 0.00 0.00 32 1016.4